When you browse on this site, cookies collect data to enhance your experience and personalize the content and advertising you see.
Visit our Privacy Policy to learn more. By continuing to use the site, you agree to this use of cookies and data.
  • In Österreich
  • Länderverzeichnis
  • Für 7 Tage
  • Wassertemperatur
  • Satellitenkarten
  • Wetterkarte
  • News
  • Widgets
  • user-avatar
    Anmelden

    Stündliche Wetter Kipungo

    Heute, 21 Februar, Donnerstag

    Zeit Temperatur Niederschläge Wind Luftdruck Luftfeuchtigkeit
    00:00 +23°C° 0 mm 1 m/S 653 mmHg 61%
    01:00 +23°C° 0 mm 1 m/S 654 mmHg 71%
    02:00 +22°C° 0 mm 1 m/S 653 mmHg 74%
    03:00 +21°C° 0 mm 1 m/S 653 mmHg 77%
    04:00 +20°C° 0 mm 1 m/S 653 mmHg 79%
    05:00 +20°C° 0 mm 1 m/S 653 mmHg 78%
    06:00 +20°C° 0 mm 1 m/S 654 mmHg 77%
    07:00 +19°C° 0 mm 0 m/S 654 mmHg 76%
    08:00 +24°C° 0 mm 1 m/S 655 mmHg 67%
    09:00 +27°C° 0 mm 1 m/S 655 mmHg 58%
    10:00 +30°C° 0 mm 2 m/S 656 mmHg 48%
    11:00 +31°C° 0 mm 2 m/S 656 mmHg 43%
    12:00 +32°C° 0 mm 2 m/S 655 mmHg 37%
    13:00 +34°C° 0 mm 2 m/S 655 mmHg 31%
    14:00 +34°C° 0 mm 2 m/S 654 mmHg 33%
    15:00 +34°C° 0 mm 2 m/S 654 mmHg 34%
    16:00 +32°C° 0 mm 2 m/S 653 mmHg 35%
    17:00 +30°C° 0 mm 2 m/S 653 mmHg 42%
    18:00 +28°C° 0 mm 2 m/S 653 mmHg 48%
    19:00 +26°C° 0 mm 2 m/S 653 mmHg 55%
    20:00 +25°C° 0.2 mm 2 m/S 654 mmHg 61%
    21:00 +24°C° 0.2 mm 2 m/S 654 mmHg 66%
    22:00 +23°C° 0.2 mm 2 m/S 655 mmHg 72%
    23:00 +22°C° 0.1 mm 1 m/S 655 mmHg 76%

    Morgen, 22 Februar, Freitag

    Zeit Temperatur Niederschläge Wind Luftdruck Luftfeuchtigkeit
    00:00 +22°C° 0.1 mm 1 m/S 655 mmHg 81%
    01:00 +22°C° 0.1 mm 1 m/S 655 mmHg 85%
    02:00 +22°C° 0 mm 1 m/S 654 mmHg 86%
    03:00 +20°C° 0 mm 2 m/S 654 mmHg 87%
    04:00 +20°C° 0 mm 2 m/S 654 mmHg 88%
    05:00 +20°C° 0 mm 2 m/S 654 mmHg 88%
    06:00 +21°C° 0 mm 1 m/S 654 mmHg 88%
    07:00 +21°C° 0 mm 1 m/S 654 mmHg 87%
    08:00 +24°C° 0.1 mm 1 m/S 655 mmHg 75%
    09:00 +27°C° 0.1 mm 1 m/S 656 mmHg 63%
    10:00 +30°C° 0.1 mm 1 m/S 657 mmHg 51%
    11:00 +31°C° 0 mm 2 m/S 657 mmHg 45%
    12:00 +31°C° 0 mm 2 m/S 656 mmHg 38%
    13:00 +33°C° 0 mm 3 m/S 656 mmHg 32%
    14:00 +33°C° 0 mm 3 m/S 655 mmHg 33%
    15:00 +33°C° 0 mm 3 m/S 655 mmHg 33%
    16:00 +33°C° 0 mm 3 m/S 654 mmHg 34%
    17:00 +29°C° 0 mm 2 m/S 654 mmHg 41%
    18:00 +27°C° 0 mm 2 m/S 654 mmHg 47%
    19:00 +25°C° 0 mm 2 m/S 653 mmHg 54%
    20:00 +24°C° 0 mm 2 m/S 654 mmHg 60%
    21:00 +21°C° 0 mm 2 m/S 654 mmHg 66%
    22:00 +20°C° 0 mm 2 m/S 654 mmHg 71%
    23:00 +20°C° 0 mm 2 m/S 654 mmHg 78%

    übermorgen, 23 Februar, Samstag

    Zeit Temperatur Niederschläge Wind Luftdruck Luftfeuchtigkeit
    00:00 +19°C° 0 mm 2 m/S 654 mmHg 84%
    01:00 +19°C° 0 mm 2 m/S 653 mmHg 91%
    02:00 +19°C° 0 mm 2 m/S 653 mmHg 92%
    03:00 +18°C° 0 mm 2 m/S 653 mmHg 94%
    04:00 +18°C° 0 mm 2 m/S 652 mmHg 96%
    05:00 +19°C° 0 mm 1 m/S 653 mmHg 94%
    06:00 +20°C° 0 mm 1 m/S 653 mmHg 92%
    07:00 +20°C° 0 mm 1 m/S 654 mmHg 90%
    08:00 +22°C° 0 mm 0 m/S 655 mmHg 76%
    09:00 +25°C° 0 mm 0 m/S 656 mmHg 63%
    10:00 +29°C° 0 mm 0 m/S 657 mmHg 50%
    11:00 +32°C° 0 mm 1 m/S 656 mmHg 43%
    12:00 +32°C° 0 mm 2 m/S 655 mmHg 37%
    13:00 +34°C° 0 mm 3 m/S 655 mmHg 31%
    14:00 +32°C° 0 mm 2 m/S 654 mmHg 33%
    15:00 +32°C° 0 mm 2 m/S 653 mmHg 34%
    16:00 +31°C° 0 mm 1 m/S 652 mmHg 36%
    17:00 +29°C° 0 mm 1 m/S 652 mmHg 42%
    18:00 +27°C° 0 mm 2 m/S 652 mmHg 47%
    19:00 +25°C° 0 mm 2 m/S 652 mmHg 53%
    20:00 +24°C° 0 mm 2 m/S 652 mmHg 58%
    21:00 +23°C° 0 mm 2 m/S 653 mmHg 62%
    22:00 +21°C° 0 mm 2 m/S 653 mmHg 66%
    23:00 +20°C° 0 mm 2 m/S 653 mmHg 73%

    24 Februar, Sonntag

    Zeit Temperatur Niederschläge Wind Luftdruck Luftfeuchtigkeit
    00:00 +20°C° 0 mm 2 m/S 652 mmHg 79%
    01:00 +19°C° 0 mm 2 m/S 652 mmHg 85%
    02:00 +20°C° 0 mm 1 m/S 652 mmHg 89%
    03:00 +19°C° 0 mm 1 m/S 651 mmHg 92%
    04:00 +16°C° 0 mm 0 m/S 651 mmHg 95%
    05:00 +17°C° 0 mm 0 m/S 651 mmHg 93%
    06:00 +18°C° 0 mm 0 m/S 652 mmHg 90%
    07:00 +18°C° 0 mm 0 m/S 652 mmHg 87%
    08:00 +22°C° 0 mm 0 m/S 653 mmHg 73%
    09:00 +28°C° 0 mm 1 m/S 654 mmHg 58%
    10:00 +32°C° 0 mm 1 m/S 655 mmHg 44%
    11:00 +32°C° 0 mm 2 m/S 655 mmHg 39%
    12:00 +34°C° 0 mm 3 m/S 654 mmHg 34%
    13:00 +35°C° 0 mm 4 m/S 653 mmHg 29%
    14:00 +35°C° 0 mm 3 m/S 653 mmHg 29%
    15:00 +34°C° 0 mm 3 m/S 652 mmHg 30%
    16:00 +34°C° 0 mm 2 m/S 651 mmHg 30%
    17:00 +31°C° 0 mm 2 m/S 652 mmHg 35%
    18:00 +29°C° 0 mm 2 m/S 652 mmHg 40%
    19:00 +27°C° 0 mm 1 m/S 652 mmHg 44%
    20:00 +26°C° 0 mm 1 m/S 652 mmHg 48%
    21:00 +25°C° 0 mm 1 m/S 652 mmHg 52%
    22:00 +24°C° 0 mm 1 m/S 653 mmHg 55%
    23:00 +24°C° 0.1 mm 1 m/S 653 mmHg 61%

    25 Februar, Montag

    Zeit Temperatur Niederschläge Wind Luftdruck Luftfeuchtigkeit
    00:00 +23°C° 0.1 mm 1 m/S 652 mmHg 67%
    01:00 +22°C° 0.1 mm 1 m/S 652 mmHg 73%
    02:00 +21°C° 0 mm 1 m/S 652 mmHg 78%
    03:00 +21°C° 0 mm 1 m/S 651 mmHg 82%
    04:00 +20°C° 0 mm 1 m/S 651 mmHg 87%
    05:00 +20°C° 0 mm 1 m/S 651 mmHg 86%
    06:00 +20°C° 0 mm 1 m/S 652 mmHg 85%
    07:00 +21°C° 0 mm 1 m/S 652 mmHg 83%
    08:00 +24°C° 0 mm 1 m/S 653 mmHg 70%
    09:00 +28°C° 0 mm 1 m/S 654 mmHg 56%
    10:00 +32°C° 0 mm 1 m/S 655 mmHg 43%
    11:00 +34°C° 0 mm 2 m/S 655 mmHg 38%
    12:00 +34°C° 0 mm 3 m/S 654 mmHg 33%
    13:00 +35°C° 0 mm 4 m/S 653 mmHg 29%
    14:00 +35°C° 0 mm 3 m/S 653 mmHg 31%
    15:00 +34°C° 0 mm 3 m/S 652 mmHg 33%
    16:00 +34°C° 0 mm 3 m/S 652 mmHg 35%
    17:00 +30°C° 0 mm 2 m/S 652 mmHg 42%
    18:00 +28°C° 0 mm 2 m/S 652 mmHg 49%
    19:00 +26°C° 0 mm 1 m/S 652 mmHg 56%
    20:00 +25°C° 0.1 mm 1 m/S 652 mmHg 58%
    21:00 +25°C° 0.1 mm 2 m/S 653 mmHg 60%
    22:00 +25°C° 0.1 mm 2 m/S 653 mmHg 62%
    23:00 +24°C° 0 mm 2 m/S 653 mmHg 66%

    26 Februar, Dienstag

    Zeit Temperatur Niederschläge Wind Luftdruck Luftfeuchtigkeit
    00:00 +23°C° 0 mm 2 m/S 653 mmHg 71%
    01:00 +23°C° 0 mm 2 m/S 652 mmHg 75%
    02:00 +21°C° 0 mm 2 m/S 652 mmHg 77%
    03:00 +21°C° 0 mm 2 m/S 652 mmHg 80%
    04:00 +20°C° 0 mm 2 m/S 652 mmHg 82%
    05:00 +20°C° 0 mm 2 m/S 652 mmHg 82%
    06:00 +20°C° 0 mm 2 m/S 653 mmHg 82%
    07:00 +20°C° 0 mm 2 m/S 653 mmHg 82%
    08:00 +24°C° 0 mm 2 m/S 654 mmHg 70%
    09:00 +27°C° 0 mm 2 m/S 654 mmHg 57%
    10:00 +29°C° 0 mm 2 m/S 655 mmHg 45%
    11:00 +29°C° 0 mm 2 m/S 654 mmHg 45%
    12:00 +29°C° 0 mm 1 m/S 653 mmHg 45%
    13:00 +29°C° 0 mm 1 m/S 652 mmHg 46%
    14:00 +29°C° 0.1 mm 2 m/S 652 mmHg 50%
    15:00 +28°C° 0.1 mm 2 m/S 652 mmHg 54%
    16:00 +28°C° 0.1 mm 3 m/S 651 mmHg 58%
    17:00 +26°C° 1.5 mm 3 m/S 651 mmHg 68%
    18:00 +23°C° 1.5 mm 2 m/S 651 mmHg 78%
    19:00 +20°C° 1.5 mm 2 m/S 651 mmHg 88%
    20:00 +20°C° 0.3 mm 2 m/S 652 mmHg 89%
    21:00 +21°C° 0.3 mm 1 m/S 652 mmHg 90%
    22:00 +21°C° 0.3 mm 1 m/S 653 mmHg 91%
    23:00 +21°C° 0.1 mm 1 m/S 652 mmHg 92%
    Mehr zeigen